Карточка аэропорта URSS

Внимание!
Информация на этой странице в стадии наполнения.
Если вы не увидели какой-то информации, или заметили неточность - пожалуйста сообщите нам!
Спасибо!
Команда RU-STAFF
Название аэропортаСочи
Название аэропорта (англ.)Sochi
Превышение89 ft. (27.1 m.)
Координаты43°26.634', 39°56.55'
Высота перехода13000 ft
Эшелон переходаFL140 (QNH >= 1013); FL150 (QNH 977-1012); FL160 (QNH < 977)
Коды ответчика1060-1077
Зона ОрВДРостов-на-Дону РПИ (URRV)
Данные METARURSS 281700Z 14001MPS 9999 SCT050CB OVC110 18/17 Q1011 R02/010070 R06/010070 NOSIG RMK R06/14001MPS QFE757
Проноз погоды (TAF)URSS 281356Z 2815/2915 05003G08MPS 9999 SCT016 BKN030CB BKN100 TEMPO 2815/2817 VRB06G12MPS -TSRA TEMPO 2817/2906 VRB06G12MPS 2500 -TSRA BKN006 BKN030CB OVC100 BECMG 2906/2907 16005G10MPS BECMG 2910/2911 23003G08MPS SCT030 BKN100 BECMG 2912/2913 27005G10MPS
NOTAMshow/hide NOTAM
AWOS   TABLE

Информация о ВПП

ВПП Длина ВПП (м.) Покрытие Курс ВПП Частота ILS
022500Цементобетон22110.5
062890Цементобетон58111.1
202500Цементобетон202 
242890Цементобетон238 

Диспетчерские позиции

Позывной Наименование органа УВД Частота
URSS_TWRСочи-Старт121.200
URSS_R_APPСочи-Круг119.700
URSS_GNDСочи-Руление119.000
URSS_FM1119.000
URSS_DELСочи-Деливери132.700
URSS_APPСочи-Подход124.600



Спутниковое изображение